Location: El Abasto
(10.3790°N, 67.5897°W)
Time: 07:41:36
(UTC+00:00)

CZ-4B R/B - Pass Details

Date: 19 May 2024
Orbit: 702 x 799 km, 98.9° (Epoch: 22 June)

Event Time Altitude Azimuth Distance (km) Brightness Sun altitude
Exits shadow 23:33:45 - 166° (SSE) 2,974 6.2 -11.8°
Reaches altitude 10° 23:35:44 10° 165° (SSE) 2,162 5.5 -12.2°
Maximum altitude 23:40:27 84° 79° (E) 708 3.2 -13.3°
Drops below altitude 10° 23:45:11 10° 349° (N) 2,168 6.3 -14.3°
Sets 23:47:27 0° 349° (N) 3,093 7.2 -14.8°
